CW0927 Weather Reports


Display with metric or nautical units.
time (UTC)temp
F
wind
direction
speed
MPH
gust
MPH
rain 1hr
in
rain 24hr
in
rain mn
in
humidity
%
barometer
mb
20260504130350 69 21 1.0 8.0 0.00 0.00 0.00 78 1019.3
20260504110337 58 15 0.0 0.0 0.00 0.00 0.00 88 1018.5
20260504100334 59 15 0.0 0.0 0.00 0.00 0.00 88 1018.0
20260504081838 61 15 0.0 1.0 0.00 0.00 0.00 86 1018.0
20260504081339 61 15 0.0 0.0 0.00 0.00 0.00 86 1018.1
20260504080838 61 15 0.0 0.0 0.00 0.00 0.00 86 1018.0
20260504080347 61 15 0.0 0.0 0.00 0.00 0.00 85 1018.1
20260504070334 63 15 0.0 0.0 0.00 0.00 0.00 83 1018.0
20260504050326 66 15 0.0 0.0 0.00 0.01 0.00 78 1019.2
20260504045824 66 15 0.0 0.0 0.00 0.02 0.00 78 1019.2
20260504045327 66 15 0.0 0.0 0.00 0.02 0.00 78 1019.3
20260504044827 66 15 0.0 0.0 0.00 0.02 0.00 78 1019.3
20260504044328 66 15 0.0 0.0 0.00 0.02 0.00 77 1019.3
20260504043900 66 15 0.0 0.0 0.00 0.02 0.00 77 1019.3
20260504043409 66 15 0.0 0.0 0.00 0.02 0.00 77 1019.3
20260504042851 66 15 0.0 0.0 0.00 0.02 0.00 77 1019.3
20260504042348 67 15 0.0 0.0 0.00 0.02 0.00 76 1019.3
20260504041849 67 15 0.0 0.0 0.00 0.02 0.00 76 1019.2
20260504041355 67 15 0.0 0.0 0.00 0.02 0.00 76 1019.3
20260504040835 67 15 0.0 0.0 0.00 0.02 0.00 76 1019.4
20260504040336 67 15 0.0 0.0 0.00 0.02 0.00 76 1019.5
20260504035832 67 15 0.0 0.0 0.00 0.04 0.02 76 1019.5
20260504035335 67 15 0.0 0.0 0.00 0.04 0.02 75 1019.5
20260504034837 67 15 0.0 0.0 0.00 0.04 0.02 75 1019.6
20260504034339 67 15 0.0 0.0 0.00 0.04 0.02 75 1019.6
20260504033840 67 15 0.0 0.0 0.00 0.04 0.02 75 1019.6
20260504033341 67 15 0.0 0.0 0.00 0.04 0.02 75 1019.6
20260504032846 67 15 0.0 0.0 0.00 0.04 0.02 75 1019.4
20260504032326 68 15 0.0 0.0 0.00 0.04 0.02 75 1019.5
20260504031858 68 15 0.0 0.0 0.00 0.04 0.02 74 1019.5
20260504031335 68 15 0.0 0.0 0.00 0.04 0.02 74 1019.4
20260504030839 68 15 0.0 1.0 0.00 0.04 0.02 74 1019.5
20260504030349 68 15 0.0 1.0 0.00 0.04 0.02 74 1019.5
20260504025850 68 15 0.0 1.0 0.00 0.04 0.02 73 1019.5
20260504025347 68 15 0.0 0.0 0.00 0.04 0.02 73 1019.4
20260504024847 68 15 0.0 0.0 0.00 0.04 0.02 73 1019.5
20260504024350 68 15 0.0 0.0 0.00 0.04 0.02 73 1019.5
20260504023853 68 15 0.0 0.0 0.00 0.04 0.02 73 1019.5
20260504023336 68 15 0.0 1.0 0.00 0.04 0.02 73 1019.5
20260504022836 68 15 0.0 1.0 0.00 0.04 0.02 72 1019.4
20260504022339 68 15 0.0 1.0 0.00 0.04 0.02 72 1019.3
20260504021842 69 20 0.0 1.0 0.00 0.04 0.02 72 1019.2
20260504021324 69 20 0.0 2.0 0.00 0.04 0.02 72 1019.1
20260504020849 69 28 0.0 2.0 0.00 0.04 0.02 72 1019.2
20260504020351 69 58 0.0 1.0 0.00 0.04 0.02 72 1019.3
20260504015853 69 53 0.0 1.0 0.00 0.04 0.02 72 1019.1
20260504015331 69 26 0.0 1.0 0.00 0.04 0.02 72 1019.0
20260504014833 69 26 0.0 1.0 0.00 0.04 0.02 72 1019.1
20260504014334 69 26 0.0 2.0 0.00 0.04 0.02 72 1019.0
20260504013835 69 355 0.0 2.0 0.00 0.04 0.02 72 1019.0
20260504013336 69 41 0.0 1.0 0.00 0.04 0.02 72 1018.9
20260504012907 69 54 0.0 1.0 0.00 0.04 0.02 71 1018.9
20260504012346 69 55 0.0 1.0 0.00 0.04 0.02 71 1018.9
20260504011848 69 56 0.0 2.0 0.00 0.04 0.02 71 1018.9
20260504011347 69 37 0.0 2.0 0.00 0.04 0.02 71 1018.8
20260504010850 69 51 0.0 1.0 0.00 0.04 0.02 71 1018.8
20260504010353 70 84 0.0 2.0 0.00 0.04 0.02 71 1018.7
20260504005838 70 51 0.0 2.0 0.00 0.04 0.02 71 1018.7
20260504005338 70 52 0.0 2.0 0.00 0.04 0.02 70 1018.7
20260504004839 70 53 0.0 2.0 0.00 0.04 0.02 70 1018.7
20260504004339 70 74 0.0 5.0 0.00 0.04 0.02 70 1018.7
20260504003840 70 61 0.0 1.0 0.00 0.04 0.02 70 1018.7
20260504003341 71 78 0.0 1.0 0.00 0.04 0.02 70 1018.7
20260504002841 71 58 0.0 2.0 0.00 0.04 0.02 69 1018.6
20260504002412 71 68 0.0 2.0 0.00 0.04 0.02 69 1018.5
20260504001829 71 80 0.0 4.0 0.00 0.04 0.02 68 1018.4
20260504001332 72 98 1.0 4.0 0.00 0.04 0.02 68 1018.4
20260504000833 72 42 0.0 5.0 0.00 0.04 0.02 68 1018.3
20260504000334 72 80 1.0 9.0 0.00 0.04 0.02 67 1018.2
20260503235834 72 69 2.0 9.0 0.00 0.04 0.02 66 1018.2
20260503235404 73 98 1.0 5.0 0.00 0.04 0.02 66 1018.1
20260503234843 73 92 1.0 3.0 0.00 0.04 0.02 65 1018.1
20260503234326 73 15 1.0 3.0 0.00 0.04 0.02 65 1018.0
20260503233828 73 76 1.0 6.0 0.00 0.04 0.02 64 1017.9
20260503233400 74 81 0.0 6.0 0.00 0.04 0.02 64 1018.0
20260503232840 74 360 1.0 4.0 0.00 0.04 0.02 63 1017.9
20260503232343 74 15 1.0 5.0 0.00 0.04 0.02 62 1018.0
20260503231841 74 72 1.0 5.0 0.00 0.04 0.02 62 1017.9
20260503231340 75 86 1.0 5.0 0.00 0.04 0.02 61 1017.9
20260503230841 75 76 1.0 7.0 0.00 0.04 0.02 61 1018.0
20260503230412 75 104 2.0 7.0 0.00 0.04 0.02 60 1018.0
20260503225852 75 136 1.0 9.0 0.00 0.04 0.02 60 1018.0
20260503225333 75 64 2.0 9.0 0.00 0.04 0.02 59 1018.0
20260503224834 76 64 2.0 7.0 0.00 0.04 0.02 59 1018.0
20260503224334 77 67 1.0 5.0 0.00 0.04 0.02 57 1018.0
20260503223904 77 63 1.0 4.0 0.00 0.04 0.02 57 1018.0
20260503223326 77 91 2.0 5.0 0.00 0.04 0.02 57 1017.9
20260503222828 78 77 3.0 5.0 0.00 0.04 0.02 56 1017.9
20260503222330 78 60 1.0 7.0 0.00 0.04 0.02 55 1017.8
20260503221829 78 51 1.0 8.0 0.00 0.04 0.02 55 1017.9
20260503221329 79 52 2.0 8.0 0.00 0.04 0.02 54 1017.8
20260503220830 79 123 1.0 8.0 0.00 0.04 0.02 55 1017.8
20260503220330 78 45 1.0 6.0 0.00 0.04 0.02 55 1017.9
20260503215830 78 130 1.0 9.0 0.00 0.05 0.02 56 1017.8
20260503215331 78 99 4.0 9.0 0.00 0.05 0.02 54 1017.8
20260503214833 79 93 2.0 8.0 0.00 0.05 0.02 55 1017.7
20260503214333 79 82 1.0 9.0 0.00 0.05 0.02 55 1017.6
20260503213904 78 61 2.0 11.0 0.00 0.05 0.02 55 1017.6
20260503213327 78 133 2.0 9.0 0.00 0.05 0.02 55 1017.6
20260503212828 79 82 1.0 9.0 0.00 0.05 0.02 54 1017.6
20260503212331 80 69 4.0 9.0 0.00 0.05 0.02 54 1017.5
20260503211836 80 49 2.0 8.0 0.00 0.05 0.02 53 1017.5
20260503211405 81 61 3.0 6.0 0.00 0.05 0.02 53 1017.5
20260503210847 81 68 1.0 4.0 0.00 0.05 0.02 53 1017.6
20260503210329 81 11 1.0 5.0 0.00 0.05 0.02 54 1017.6
20260503205831 81 73 2.0 5.0 0.00 0.15 0.02 53 1017.6
20260503205334 82 58 2.0 5.0 0.00 0.15 0.02 52 1017.7
20260503204837 82 5 1.0 4.0 0.00 0.15 0.02 54 1017.6
20260503204340 81 17 1.0 6.0 0.00 0.15 0.02 54 1017.8
20260503203841 81 83 2.0 9.0 0.00 0.15 0.02 52 1017.8
20260503203339 82 43 3.0 8.0 0.00 0.15 0.02 53 1017.9
20260503202839 81 38 1.0 6.0 0.00 0.15 0.02 54 1017.9
20260503202321 80 54 2.0 8.0 0.00 0.15 0.02 54 1017.9
20260503201825 80 65 2.0 8.0 0.00 0.15 0.02 53 1017.9
20260503201323 80 5 1.0 5.0 0.00 0.15 0.02 55 1018.0
20260503200826 80 74 2.0 8.0 0.00 0.15 0.02 55 1017.9
20260503200354 80 74 1.0 10.0 0.00 0.15 0.02 56 1018.0
20260503195832 80 44 3.0 10.0 0.00 0.17 0.02 54 1018.0
20260503195333 80 73 2.0 6.0 0.00 0.17 0.02 54 1018.0
20260503194833 81 76 1.0 10.0 0.00 0.17 0.02 53 1018.1
20260503194334 82 86 3.0 10.0 0.00 0.17 0.02 53 1018.2
20260503193842 81 44 2.0 7.0 0.00 0.17 0.02 56 1018.2
20260503193342 81 75 1.0 6.0 0.00 0.17 0.02 54 1018.4
20260503192911 80 71 1.0 9.0 0.00 0.17 0.02 55 1018.6
20260503192345 79 85 3.0 9.0 0.00 0.17 0.02 56 1018.7
20260503191846 80 73 2.0 5.0 0.00 0.17 0.02 56 1018.8
20260503191354 79 350 2.0 5.0 0.00 0.17 0.02 59 1018.8
20260503190904 79 5 1.0 6.0 0.00 0.17 0.02 56 1019.0
20260503190345 80 348 2.0 8.0 0.00 0.17 0.02 53 1019.0
20260503185849 79 71 3.0 8.0 0.00 0.17 0.02 58 1019.0
20260503185348 78 5 1.0 8.0 0.00 0.17 0.02 58 1019.0
20260503184849 78 27 3.0 10.0 0.00 0.17 0.02 56 1019.1
20260503184336 80 100 5.0 10.0 0.00 0.17 0.02 55 1019.2
20260503183838 80 92 4.0 10.0 0.00 0.17 0.02 55 1019.2
20260503183342 79 95 3.0 7.0 0.00 0.17 0.02 56 1019.3
20260503182846 79 126 1.0 8.0 0.00 0.17 0.02 58 1019.3
20260503182346 81 92 4.0 11.0 0.00 0.17 0.02 57 1019.5
20260503181848 80 85 4.0 11.0 0.00 0.17 0.02 59 1019.4
20260503181349 80 108 3.0 8.0 0.00 0.17 0.02 56 1019.5
20260503180826 80 74 2.0 5.0 0.00 0.17 0.02 58 1019.5
20260503180355 80 71 2.0 6.0 0.00 0.17 0.02 56 1019.7
20260503175830 81 24 3.0 5.0 0.00 0.22 0.02 58 1019.6
20260503175329 80 87 2.0 6.0 0.00 0.22 0.02 57 1019.6
20260503174829 79 42 2.0 6.0 0.00 0.22 0.02 59 1019.7
20260503174332 79 25 2.0 5.0 0.00 0.22 0.02 58 1019.8
20260503173857 80 69 2.0 8.0 0.00 0.22 0.02 59 1019.8
20260503173337 79 66 2.0 7.0 0.00 0.22 0.02 60 1019.7
20260503172906 79 360 3.0 7.0 0.00 0.22 0.02 59 1019.8
20260503172345 77 86 4.0 8.0 0.00 0.22 0.02 59 1019.8
20260503171845 78 42 1.0 8.0 0.00 0.22 0.02 60 1019.9
20260503171347 78 163 1.0 6.0 0.00 0.22 0.02 61 1019.8
20260503170848 78 51 2.0 6.0 0.00 0.22 0.02 62 1020.0
20260503170349 78 66 1.0 6.0 0.00 0.22 0.02 60 1019.9
20260503150845 72 106 2.0 9.0 0.00 0.22 0.02 74 1020.3
20260503150341 71 9 2.0 5.0 0.00 0.22 0.02 76 1020.3